Tracking 19286 objects as of 18-Nov-2018
HD Live streaming from Space Station
objects crossing your sky now

INSAT 3B

Track INSAT 3B now!
INSAT 3B is classified as:


NORAD ID: 26108
Int'l Code: 2000-016B
Perigee: 35,924.5 km
Apogee: 36,005.4 km
Inclination: 5.3 °
Period: 1,444.9 minutes
Semi major axis: 42335 km
RCS: 5.0119 m2 (large)
Launch date: March 21, 2000
Source: India (IND)
Launch site: FRENCH GUIANA (FRGUI)

Voice, data and fax transmissions.
aabbcc
Your satellite tracking list
Your tracking list is empty




NASA's NSSDC Master Catalog

Two Line Element Set (TLE):
1 26108U 00016B   18321.49966423 -.00000003 +00000-0 +00000-0 0  9996
2 26108 005.2798 063.9923 0009559 199.4194 160.4116 00.99664133023844
Source of the keplerian elements: AFSPC